Powrót do katalogu

CZ-6A DEB

AktywnySSO
NORAD 54429·DEBRIS·🇨🇳 China

Wystrzelony Nov 11, 2022 z Taiyuan Satellite Launch Center

Loading…

Następne Przeloty (najbliższe 24 godziny)

TLE

ŚwieżeSource: Space-Track

Epoka: Sep 14, 2026, 08:16 UTC

1 54429U 22151FD  26257.34470671  .00000222  00000-0  20946-3 0  9999
2 54429  99.0610 225.4907 0165622 239.9558 118.5081 13.85530226193881

Śledź CZ-6A DEB w czasie rzeczywistym z AllMySat

Download on the App Store